"read_dt","SO2 (ppb)","flags","PMT voltage (V)","lamp voltage (V)","lamp intensity (Hz)","internal temp (C)","react chamber temp (C)","sample flow (l/min)","pres (mmHg)","SO2 bkg (ppb)","SO2 coefficient"
2015-02-28 00:00:00,2295E-3,5C000000,-0724,0835,12242,027.4,045.4,0.455,739.8,01.18,0.508
2015-02-28 00:01:00,2189E-3,5C000000,-0724,0836,12175,027.4,045.4,0.455,739.7,01.18,0.508
2015-02-28 00:02:00,2363E-3,5C000000,-0724,0835,12276,027.4,045.4,0.455,739.8,01.18,0.508
2015-02-28 00:03:00,2121E-3,5C000000,-0724,0836,12041,027.4,045.4,0.455,739.8,01.18,0.508
2015-02-28 00:04:00,2487E-3,5C000000,-0724,0835,12060,027.4,045.4,0.455,739.8,01.18,0.508
2015-02-28 00:05:00,2402E-3,5C000000,-0724,0834,12049,027.4,045.4,0.455,739.7,01.18,0.508
2015-02-28 00:06:00,2415E-3,5C000000,-0724,0835,12131,027.5,045.4,0.455,739.6,01.18,0.508
2015-02-28 00:07:00,2306E-3,5C000000,-0724,0835,12135,027.5,045.4,0.455,739.6,01.18,0.508
2015-02-28 00:08:00,2488E-3,5C000000,-0724,0836,12153,027.5,045.4,0.455,739.6,01.18,0.508
2015-02-28 00:09:00,2297E-3,5C000000,-0724,0836,12042,027.5,045.4,0.456,739.6,01.18,0.508
2015-02-28 00:10:00,2263E-3,5C000000,-0724,0837,12244,027.4,045.4,0.455,739.6,01.18,0.508
2015-02-28 00:11:00,2287E-3,5C000000,-0724,0836,12320,027.5,045.4,0.455,739.7,01.18,0.508
2015-02-28 00:12:00,2373E-3,5C000000,-0724,0835,12090,027.4,045.4,0.455,739.6,01.18,0.508
2015-02-28 00:13:00,2339E-3,5C000000,-0724,0837,12033,027.5,045.4,0.455,739.8,01.18,0.508
2015-02-28 00:14:00,2254E-3,5C000000,-0724,0837,11903,027.5,045.4,0.455,739.8,01.18,0.508
2015-02-28 00:15:00,2338E-3,5C000000,-0724,0836,12240,027.5,045.4,0.455,739.8,01.18,0.508
2015-02-28 00:16:00,2304E-3,5C000000,-0724,0835,11996,027.5,045.4,0.455,739.6,01.18,0.508
2015-02-28 00:17:00,2156E-3,5C000000,-0724,0835,12166,027.5,045.4,0.455,739.6,01.18,0.508
2015-02-28 00:18:00,2120E-3,5C000000,-0724,0834,11967,027.5,045.4,0.455,739.7,01.18,0.508
2015-02-28 00:19:00,2354E-3,5C000000,-0724,0836,12164,027.5,045.4,0.455,739.6,01.18,0.508
2015-02-28 00:20:00,2411E-3,5C000000,-0724,0836,12151,027.5,045.4,0.455,739.6,01.18,0.508
2015-02-28 00:21:00,2189E-3,5C000000,-0724,0836,12102,027.5,045.4,0.455,739.6,01.18,0.508
2015-02-28 00:22:00,2338E-3,5C000000,-0724,0836,12104,027.5,045.4,0.455,739.4,01.18,0.508
2015-02-28 00:23:00,2159E-3,5C000000,-0724,0837,11999,027.5,045.4,0.455,739.3,01.18,0.508
2015-02-28 00:24:00,2236E-3,5C000000,-0724,0836,12182,027.5,045.4,0.455,739.6,01.18,0.508
2015-02-28 00:25:00,2396E-3,5C000000,-0724,0836,12108,027.5,045.4,0.455,739.6,01.18,0.508
2015-02-28 00:26:00,2290E-3,5C000000,-0724,0837,12013,027.5,045.4,0.455,739.7,01.18,0.508
2015-02-28 00:27:00,2374E-3,5C000000,-0724,0837,12116,027.5,045.4,0.455,739.7,01.18,0.508
2015-02-28 00:28:00,2455E-3,5C000000,-0724,0836,12281,027.5,045.4,0.455,739.8,01.18,0.508
2015-02-28 00:29:00,2303E-3,5C000000,-0724,0836,12104,027.5,045.4,0.455,739.8,01.18,0.508
2015-02-28 00:30:00,2367E-3,5C000000,-0724,0836,12025,027.5,045.4,0.455,739.8,01.18,0.508
2015-02-28 00:31:00,2269E-3,5C000000,-0724,0836,12107,027.5,045.4,0.455,739.7,01.18,0.508
2015-02-28 00:32:00,2276E-3,5C000000,-0724,0836,12242,027.5,045.4,0.455,739.4,01.18,0.508
2015-02-28 00:33:00,2305E-3,5C000000,-0724,0836,12103,027.5,045.4,0.455,739.4,01.18,0.508
2015-02-28 00:34:00,2228E-3,5C000000,-0724,0836,12164,027.5,045.4,0.455,739.4,01.18,0.508
2015-02-28 00:35:00,2347E-3,5C000000,-0724,0837,12171,027.5,045.4,0.455,739.3,01.18,0.508
2015-02-28 00:36:00,2244E-3,5C000000,-0724,0836,12151,027.5,045.4,0.455,739.3,01.18,0.508
2015-02-28 00:37:00,2366E-3,5C000000,-0724,0837,12122,027.5,045.4,0.455,739.6,01.18,0.508
2015-02-28 00:38:00,2177E-3,5C000000,-0724,0836,12117,027.5,045.4,0.455,739.7,01.18,0.508
2015-02-28 00:39:00,2229E-3,5C000000,-0724,0836,12000,027.5,045.4,0.455,739.6,01.18,0.508
2015-02-28 00:40:00,2164E-3,5C000000,-0724,0837,12089,027.5,045.4,0.455,739.7,01.18,0.508
2015-02-28 00:41:00,2348E-3,5C000000,-0724,0835,11968,027.5,045.4,0.455,739.7,01.18,0.508
2015-02-28 00:42:00,2266E-3,5C000000,-0724,0836,12235,027.5,045.4,0.455,739.7,01.18,0.508
2015-02-28 00:43:00,2253E-3,5C000000,-0724,0836,12073,027.5,045.4,0.455,739.7,01.18,0.508
2015-02-28 00:44:00,2379E-3,5C000000,-0724,0837,12122,027.5,045.4,0.455,739.8,01.18,0.508
2015-02-28 00:45:00,2333E-3,5C000000,-0724,0836,12023,027.5,045.4,0.455,739.8,01.18,0.508
2015-02-28 00:46:00,2367E-3,5C000000,-0724,0836,12129,027.5,045.4,0.455,739.7,01.18,0.508
2015-02-28 00:47:00,2358E-3,5C000000,-0724,0836,12158,027.5,045.4,0.455,739.7,01.18,0.508
2015-02-28 00:48:00,2337E-3,5C000000,-0724,0837,12007,027.5,045.4,0.455,739.6,01.18,0.508
2015-02-28 00:49:00,2305E-3,5C000000,-0724,0836,12103,027.5,045.4,0.455,739.7,01.18,0.508
2015-02-28 00:50:00,2197E-3,5C000000,-0724,0836,12204,027.5,045.4,0.455,739.8,01.18,0.508
2015-02-28 00:51:00,2261E-3,5C000000,-0724,0836,12156,027.5,045.4,0.455,739.8,01.18,0.508
2015-02-28 00:52:00,2306E-3,5C000000,-0724,0836,12258,027.5,045.4,0.455,739.8,01.18,0.508
2015-02-28 00:53:00,2488E-3,5C000000,-0724,0837,12003,027.5,045.4,0.455,739.8,01.18,0.508
2015-02-28 00:54:00,2347E-3,5C000000,-0724,0837,12050,027.5,045.4,0.455,739.7,01.18,0.508
2015-02-28 00:55:00,2307E-3,5C000000,-0724,0836,12134,027.6,045.4,0.455,739.7,01.18,0.508
2015-02-28 00:56:00,2153E-3,5C000000,-0724,0837,12192,027.6,045.4,0.455,739.5,01.18,0.508
2015-02-28 00:57:00,2191E-3,5C000000,-0724,0836,12144,027.6,045.4,0.455,739.5,01.18,0.508
2015-02-28 00:58:00,2257E-3,5C000000,-0724,0836,12155,027.6,045.4,0.455,739.5,01.18,0.508
2015-02-28 00:59:00,2314E-3,5C000000,-0724,0836,12143,027.6,045.4,0.455,739.4,01.18,0.508
2015-02-28 01:00:00,2306E-3,5C000000,-0724,0836,12184,027.6,045.4,0.455,739.6,01.18,0.508
2015-02-28 01:01:00,2272E-3,5C000000,-0724,0836,12073,027.6,045.4,0.455,739.5,01.18,0.508
2015-02-28 01:02:00,2334E-3,5C000000,-0724,0836,12149,027.6,045.4,0.455,739.6,01.18,0.508
2015-02-28 01:03:00,2432E-3,5C000000,-0724,0836,11977,027.6,045.4,0.455,739.5,01.18,0.508
2015-02-28 01:04:00,2224E-3,5C000000,-0724,0836,12076,027.6,045.4,0.455,739.5,01.18,0.508
2015-02-28 01:05:00,2246E-3,5C000000,-0724,0836,12261,027.6,045.4,0.455,739.4,01.18,0.508
2015-02-28 01:06:00,2238E-3,5C000000,-0724,0836,12189,027.6,045.4,0.455,739.4,01.18,0.508
2015-02-28 01:07:00,2438E-3,5C000000,-0724,0836,12186,027.6,045.4,0.455,739.4,01.18,0.508
2015-02-28 01:08:00,2521E-3,5C000000,-0724,0836,12153,027.6,045.4,0.455,739.5,01.18,0.508
2015-02-28 01:09:00,2193E-3,5C000000,-0724,0836,12332,027.6,045.4,0.455,739.5,01.18,0.508
2015-02-28 01:10:00,2238E-3,5C000000,-0724,0835,12172,027.6,045.4,0.455,739.6,01.18,0.508
2015-02-28 01:11:00,2342E-3,5C000000,-0724,0836,12107,027.6,045.4,0.455,739.5,01.18,0.508
2015-02-28 01:12:00,2422E-3,5C000000,-0724,0836,12182,027.6,045.4,0.455,739.5,01.18,0.508
2015-02-28 01:13:00,2218E-3,5C000000,-0724,0837,12063,027.6,045.4,0.455,739.4,01.18,0.508
2015-02-28 01:14:00,2278E-3,5C000000,-0724,0836,12304,027.6,045.4,0.455,739.5,01.18,0.508
2015-02-28 01:15:00,2431E-3,5C000000,-0724,0836,12182,027.6,045.4,0.455,739.5,01.18,0.508
2015-02-28 01:16:00,2491E-3,5C000000,-0724,0836,12028,027.6,045.4,0.455,739.6,01.18,0.508
2015-02-28 01:17:00,2367E-3,5C000000,-0724,0836,12191,027.6,045.4,0.455,739.6,01.18,0.508
2015-02-28 01:18:00,2293E-3,5C000000,-0724,0836,12089,027.6,045.4,0.455,739.4,01.18,0.508
2015-02-28 01:19:00,2360E-3,5C000000,-0724,0836,12207,027.6,045.4,0.455,739.7,01.18,0.508
2015-02-28 01:20:00,2504E-3,5C000000,-0724,0836,12229,027.6,045.4,0.455,739.7,01.18,0.508
2015-02-28 01:21:00,2378E-3,5C000000,-0724,0836,12035,027.6,045.4,0.455,739.7,01.18,0.508
2015-02-28 01:22:00,2270E-3,5C000000,-0724,0837,12217,027.6,045.4,0.455,739.7,01.18,0.508
2015-02-28 01:23:00,2406E-3,5C000000,-0724,0836,12037,027.6,045.4,0.455,739.7,01.18,0.508
2015-02-28 01:24:00,2244E-3,5C000000,-0724,0836,12205,027.6,045.4,0.455,739.7,01.18,0.508
2015-02-28 01:25:00,2285E-3,5C000000,-0724,0836,11945,027.6,045.4,0.455,739.8,01.18,0.508
2015-02-28 01:26:00,2267E-3,5C000000,-0724,0835,11984,027.6,045.4,0.455,739.8,01.18,0.508
2015-02-28 01:27:00,2357E-3,5C000000,-0724,0835,12320,027.6,045.4,0.455,739.9,01.18,0.508
2015-02-28 01:28:00,2366E-3,5C000000,-0724,0836,12164,027.6,045.4,0.455,739.9,01.18,0.508
2015-02-28 01:29:00,2295E-3,5C000000,-0724,0835,12182,027.6,045.4,0.455,739.8,01.18,0.508
2015-02-28 01:30:00,2353E-3,5C000000,-0724,0834,12126,027.6,045.4,0.455,739.7,01.18,0.508
2015-02-28 01:31:00,2189E-3,5C000000,-0724,0835,12104,027.7,045.4,0.455,739.8,01.18,0.508
2015-02-28 01:32:00,2292E-3,5C000000,-0724,0835,12248,027.7,045.4,0.455,739.8,01.18,0.508
2015-02-28 01:33:00,2387E-3,5C000000,-0724,0836,12025,027.6,045.4,0.455,739.9,01.18,0.508
2015-02-28 01:34:00,2360E-3,5C000000,-0724,0836,12277,027.6,045.4,0.455,739.9,01.18,0.508
2015-02-28 01:35:00,2336E-3,5C000000,-0724,0836,12138,027.6,045.4,0.455,739.8,01.18,0.508
2015-02-28 01:36:00,2306E-3,5C000000,-0724,0836,12142,027.7,045.4,0.455,739.9,01.18,0.508
2015-02-28 01:37:00,2299E-3,5C000000,-0724,0836,12051,027.7,045.4,0.455,739.9,01.18,0.508
2015-02-28 01:38:00,2393E-3,5C000000,-0724,0835,12068,027.7,045.4,0.455,739.9,01.18,0.508
2015-02-28 01:39:00,2304E-3,5C000000,-0724,0836,12134,027.7,045.4,0.455,739.9,01.18,0.508
2015-02-28 01:40:00,2469E-3,5C000000,-0724,0837,12061,027.7,045.4,0.455,739.9,01.18,0.508
2015-02-28 01:41:00,2270E-3,5C000000,-0724,0836,12245,027.7,045.4,0.455,739.9,01.18,0.508
2015-02-28 01:42:00,2423E-3,5C000000,-0724,0835,12269,027.7,045.4,0.455,740.0,01.18,0.508
2015-02-28 01:43:00,2359E-3,5C000000,-0724,0836,12226,027.7,045.4,0.455,740.1,01.18,0.508
2015-02-28 01:44:00,2300E-3,5C000000,-0724,0836,12076,027.7,045.4,0.455,740.1,01.18,0.508
2015-02-28 01:45:00,2243E-3,5C000000,-0724,0835,12047,027.7,045.4,0.455,740.0,01.18,0.508
2015-02-28 01:46:00,2376E-3,5C000000,-0724,0836,12050,027.7,045.4,0.455,740.0,01.18,0.508
2015-02-28 01:47:00,2237E-3,5C000000,-0724,0836,12253,027.7,045.5,0.455,739.9,01.18,0.508
2015-02-28 01:48:00,2295E-3,5C000000,-0724,0836,12140,027.7,045.4,0.455,739.9,01.18,0.508
2015-02-28 01:49:00,2207E-3,5C000000,-0724,0835,12316,027.7,045.4,0.455,739.9,01.18,0.508
2015-02-28 01:50:00,2187E-3,5C000000,-0724,0835,12301,027.7,045.4,0.455,739.9,01.18,0.508
2015-02-28 01:51:00,2217E-3,5C000000,-0724,0836,12359,027.7,045.4,0.455,739.9,01.18,0.508
2015-02-28 01:52:00,2212E-3,5C000000,-0724,0836,12161,027.7,045.4,0.455,740.0,01.18,0.508
2015-02-28 01:53:00,2208E-3,5C000000,-0724,0837,11942,027.7,045.4,0.455,739.9,01.18,0.508
2015-02-28 01:54:00,2505E-3,5C000000,-0724,0835,12156,027.8,045.4,0.455,740.0,01.18,0.508
2015-02-28 01:55:00,2260E-3,5C000000,-0724,0836,12217,027.8,045.4,0.455,740.0,01.18,0.508
2015-02-28 01:56:00,2379E-3,5C000000,-0724,0835,12079,027.7,045.4,0.455,740.1,01.18,0.508
2015-02-28 01:57:00,2364E-3,5C000000,-0724,0836,12102,027.7,045.4,0.455,740.0,01.18,0.508
2015-02-28 01:58:00,2231E-3,5C000000,-0724,0836,12122,027.8,045.4,0.455,740.1,01.18,0.508
2015-02-28 01:59:00,2269E-3,5C000000,-0724,0837,12171,027.8,045.4,0.455,740.1,01.18,0.508
2015-02-28 02:00:00,2214E-3,5C000000,-0724,0835,12095,027.8,045.4,0.455,740.1,01.18,0.508
2015-02-28 02:01:00,2363E-3,5C000000,-0724,0836,12242,027.8,045.5,0.455,740.0,01.18,0.508
2015-02-28 02:02:00,2381E-3,5C000000,-0724,0836,12102,027.8,045.4,0.455,740.0,01.18,0.508
2015-02-28 02:03:00,2365E-3,5C000000,-0724,0837,12126,027.8,045.4,0.455,740.1,01.18,0.508
2015-02-28 02:04:00,2362E-3,5C000000,-0724,0835,12217,027.8,045.4,0.455,740.2,01.18,0.508
2015-02-28 02:05:00,2350E-3,5C000000,-0724,0835,12138,027.8,045.4,0.455,740.3,01.18,0.508
2015-02-28 02:06:00,2269E-3,5C000000,-0724,0836,12125,027.8,045.4,0.455,740.2,01.18,0.508
2015-02-28 02:07:00,2339E-3,5C000000,-0724,0836,12006,027.8,045.4,0.455,740.3,01.18,0.508
2015-02-28 02:08:00,2298E-3,5C000000,-0724,0836,12151,027.8,045.4,0.455,740.4,01.18,0.508
2015-02-28 02:09:00,2282E-3,5C000000,-0724,0835,12125,027.8,045.5,0.455,740.3,01.18,0.508
2015-02-28 02:10:00,2357E-3,5C000000,-0724,0836,12113,027.8,045.4,0.455,740.2,01.18,0.508
2015-02-28 02:11:00,2318E-3,5C000000,-0724,0836,12328,027.8,045.4,0.455,740.2,01.18,0.508
2015-02-28 02:12:00,2242E-3,5C000000,-0724,0836,12021,027.9,045.4,0.455,740.1,01.18,0.508
2015-02-28 02:13:00,2278E-3,5C000000,-0724,0836,12101,027.8,045.5,0.455,740.0,01.18,0.508
2015-02-28 02:14:00,2368E-3,5C000000,-0724,0836,12186,027.9,045.4,0.455,740.0,01.18,0.508
2015-02-28 02:15:00,2282E-3,5C000000,-0724,0836,12054,027.9,045.4,0.455,740.1,01.18,0.508
2015-02-28 02:16:00,2337E-3,5C000000,-0724,0835,12020,027.9,045.4,0.455,740.1,01.18,0.508
2015-02-28 02:17:00,2361E-3,5C000000,-0724,0836,12106,027.9,045.4,0.455,740.0,01.18,0.508
2015-02-28 02:18:00,2332E-3,5C000000,-0724,0836,12111,027.9,045.4,0.455,740.1,01.18,0.508
2015-02-28 02:19:00,2331E-3,5C000000,-0724,0835,12099,027.9,045.4,0.455,740.0,01.18,0.508
2015-02-28 02:20:00,2309E-3,5C000000,-0724,0836,11859,027.9,045.4,0.455,740.0,01.18,0.508
2015-02-28 02:21:00,2474E-3,5C000000,-0724,0836,12198,027.9,045.4,0.455,740.0,01.18,0.508
2015-02-28 02:22:00,2387E-3,5C000000,-0724,0837,12218,027.9,045.4,0.455,740.0,01.18,0.508
2015-02-28 02:23:00,2279E-3,5C000000,-0724,0837,12192,027.9,045.4,0.455,740.0,01.18,0.508
2015-02-28 02:24:00,2342E-3,5C000000,-0724,0836,12024,027.9,045.5,0.455,740.1,01.18,0.508
2015-02-28 02:25:00,2409E-3,5C000000,-0724,0836,12350,027.9,045.4,0.455,740.0,01.18,0.508
2015-02-28 02:26:00,2333E-3,5C000000,-0724,0836,12028,027.9,045.5,0.455,740.0,01.18,0.508
2015-02-28 02:27:00,2330E-3,5C000000,-0724,0835,12022,027.9,045.5,0.455,739.9,01.18,0.508
2015-02-28 02:28:00,2288E-3,5C000000,-0724,0836,12256,028.0,045.4,0.455,739.9,01.18,0.508
2015-02-28 02:29:00,2323E-3,5C000000,-0724,0837,12212,027.9,045.4,0.455,739.9,01.18,0.508
2015-02-28 02:30:00,2463E-3,5C000000,-0724,0836,11839,027.9,045.4,0.455,739.8,01.18,0.508
2015-02-28 02:31:00,2382E-3,5C000000,-0724,0836,11988,027.9,045.4,0.455,739.9,01.18,0.508
2015-02-28 02:32:00,2361E-3,5C000000,-0724,0836,12070,027.9,045.4,0.455,739.8,01.18,0.508
2015-02-28 02:33:00,2404E-3,5C000000,-0724,0836,12146,028.0,045.4,0.454,739.8,01.18,0.508
2015-02-28 02:34:00,2340E-3,5C000000,-0724,0836,12140,028.0,045.4,0.455,739.8,01.18,0.508
2015-02-28 02:35:00,2369E-3,5C000000,-0724,0835,12172,028.0,045.4,0.455,739.8,01.18,0.508
2015-02-28 02:36:00,2448E-3,5C000000,-0724,0836,12161,028.0,045.4,0.455,739.8,01.18,0.508
2015-02-28 02:37:00,2307E-3,5C000000,-0724,0836,12212,027.9,045.4,0.454,739.8,01.18,0.508
2015-02-28 02:38:00,2313E-3,5C000000,-0724,0836,12221,028.0,045.4,0.454,739.9,01.18,0.508
2015-02-28 02:39:00,2166E-3,5C000000,-0724,0835,12060,028.0,045.4,0.454,739.9,01.18,0.508
2015-02-28 02:40:00,2308E-3,5C000000,-0724,0835,12365,028.0,045.4,0.454,739.8,01.18,0.508
2015-02-28 02:41:00,2416E-3,5C000000,-0724,0835,12211,028.0,045.4,0.454,739.8,01.18,0.508
2015-02-28 02:42:00,2371E-3,5C000000,-0724,0836,12132,028.0,045.4,0.454,739.7,01.18,0.508
2015-02-28 02:43:00,2309E-3,5C000000,-0724,0837,12048,028.0,045.4,0.454,739.6,01.18,0.508
2015-02-28 02:44:00,2451E-3,5C000000,-0724,0835,12159,028.0,045.4,0.454,739.6,01.18,0.508
2015-02-28 02:45:00,2262E-3,5C000000,-0724,0835,12255,028.0,045.4,0.454,739.8,01.18,0.508
2015-02-28 02:46:00,2305E-3,5C000000,-0724,0836,12027,028.0,045.4,0.454,739.9,01.18,0.508
2015-02-28 02:47:00,2253E-3,5C000000,-0724,0836,12056,028.0,045.4,0.454,739.9,01.18,0.508
2015-02-28 02:48:00,2317E-3,5C000000,-0724,0836,12122,028.0,045.4,0.454,739.9,01.18,0.508
2015-02-28 02:49:00,2309E-3,5C000000,-0724,0836,12170,028.0,045.4,0.454,739.9,01.18,0.508
2015-02-28 02:50:00,2320E-3,5C000000,-0724,0836,12176,028.0,045.4,0.454,739.9,01.18,0.508
2015-02-28 02:51:00,2379E-3,5C000000,-0724,0835,12289,028.0,045.4,0.454,739.8,01.18,0.508
2015-02-28 02:52:00,2414E-3,5C000000,-0724,0836,12138,028.0,045.5,0.454,739.8,01.18,0.508
2015-02-28 02:53:00,2492E-3,5C000000,-0724,0836,12236,028.1,045.4,0.454,739.6,01.18,0.508
2015-02-28 02:54:00,2311E-3,5C000000,-0724,0836,12136,028.1,045.5,0.454,739.8,01.18,0.508
2015-02-28 02:55:00,2273E-3,5C000000,-0724,0835,12249,028.1,045.4,0.455,739.8,01.18,0.508
2015-02-28 02:56:00,2539E-3,5C000000,-0724,0836,12208,028.1,045.4,0.455,739.8,01.18,0.508
2015-02-28 02:57:00,2412E-3,5C000000,-0724,0835,12219,028.0,045.4,0.455,739.8,01.18,0.508
2015-02-28 02:58:00,2390E-3,5C000000,-0724,0837,11941,028.1,045.4,0.455,739.8,01.18,0.508
2015-02-28 02:59:00,2384E-3,5C000000,-0724,0837,12263,028.1,045.5,0.455,739.9,01.18,0.508
2015-02-28 03:00:00,2358E-3,5C000000,-0724,0837,12045,028.1,045.5,0.455,739.8,01.18,0.508
2015-02-28 03:01:00,2317E-3,5C000000,-0724,0835,12135,028.1,045.5,0.455,739.8,01.18,0.508
2015-02-28 03:02:00,2358E-3,5C000000,-0724,0836,12166,028.1,045.4,0.455,739.9,01.18,0.508
2015-02-28 03:03:00,2294E-3,5C000000,-0724,0836,11973,028.0,045.4,0.455,739.8,01.18,0.508
2015-02-28 03:04:00,2406E-3,5C000000,-0724,0836,11987,028.1,045.5,0.455,739.8,01.18,0.508
2015-02-28 03:05:00,2280E-3,5C000000,-0724,0836,12085,028.1,045.4,0.455,739.7,01.18,0.508
2015-02-28 03:06:00,2457E-3,5C000000,-0724,0836,12264,028.1,045.4,0.455,739.8,01.18,0.508
2015-02-28 03:07:00,2435E-3,5C000000,-0724,0835,12243,028.1,045.4,0.455,739.8,01.18,0.508
2015-02-28 03:08:00,2303E-3,5C000000,-0724,0836,12125,028.1,045.4,0.454,739.7,01.18,0.508
2015-02-28 03:09:00,2339E-3,5C000000,-0724,0836,12130,028.1,045.4,0.454,739.7,01.18,0.508
2015-02-28 03:10:00,2363E-3,5C000000,-0724,0836,12224,028.1,045.4,0.454,739.7,01.18,0.508
2015-02-28 03:11:00,2413E-3,5C000000,-0724,0837,12099,028.1,045.4,0.454,739.7,01.18,0.508
2015-02-28 03:12:00,2297E-3,5C000000,-0724,0835,12113,028.1,045.4,0.454,739.8,01.18,0.508
2015-02-28 03:13:00,2269E-3,5C000000,-0724,0836,12147,028.1,045.4,0.454,739.8,01.18,0.508
2015-02-28 03:14:00,2336E-3,5C000000,-0724,0836,12213,028.1,045.4,0.454,739.8,01.18,0.508
2015-02-28 03:15:00,2347E-3,5C000000,-0724,0836,12231,028.1,045.4,0.454,739.8,01.18,0.508
2015-02-28 03:16:00,2418E-3,5C000000,-0724,0835,12218,028.1,045.4,0.454,739.8,01.18,0.508
2015-02-28 03:17:00,2431E-3,5C000000,-0724,0836,12150,028.1,045.5,0.454,739.7,01.18,0.508
2015-02-28 03:18:00,2385E-3,5C000000,-0724,0836,11999,028.1,045.4,0.454,739.7,01.18,0.508
2015-02-28 03:19:00,2371E-3,5C000000,-0724,0836,12035,028.2,045.5,0.454,739.5,01.18,0.508
2015-02-28 03:20:00,2299E-3,5C000000,-0724,0835,12137,028.2,045.5,0.454,739.7,01.18,0.508
2015-02-28 03:21:00,2291E-3,5C000000,-0724,0835,12226,028.2,045.4,0.454,739.6,01.18,0.508
2015-02-28 03:22:00,2556E-3,5C000000,-0724,0836,12257,028.1,045.4,0.455,739.6,01.18,0.508
2015-02-28 03:23:00,2356E-3,5C000000,-0724,0836,12195,028.2,045.4,0.455,739.6,01.18,0.508
2015-02-28 03:24:00,2390E-3,5C000000,-0724,0836,12203,028.2,045.4,0.455,739.5,01.18,0.508
2015-02-28 03:25:00,2356E-3,5C000000,-0724,0836,12154,028.1,045.5,0.455,739.6,01.18,0.508
2015-02-28 03:26:00,2358E-3,5C000000,-0724,0837,12198,028.2,045.5,0.455,739.6,01.18,0.508
2015-02-28 03:27:00,2319E-3,5C000000,-0724,0837,12136,028.2,045.5,0.455,739.4,01.18,0.508
2015-02-28 03:28:00,2351E-3,5C000000,-0724,0836,12177,028.2,045.4,0.455,739.5,01.18,0.508
2015-02-28 03:29:00,2264E-3,5C000000,-0724,0837,11966,028.2,045.5,0.454,739.4,01.18,0.508
2015-02-28 03:30:00,2282E-3,5C000000,-0724,0837,12203,028.2,045.4,0.454,739.2,01.18,0.508
2015-02-28 03:31:00,2446E-3,5C000000,-0724,0837,12316,028.2,045.5,0.454,739.2,01.18,0.508
2015-02-28 03:32:00,2353E-3,5C000000,-0724,0838,12208,028.2,045.4,0.454,739.3,01.18,0.508
2015-02-28 03:33:00,2289E-3,5C000000,-0724,0837,12259,028.2,045.5,0.454,739.3,01.18,0.508
2015-02-28 03:34:00,2396E-3,5C000000,-0724,0836,12151,028.2,045.4,0.454,739.4,01.18,0.508
2015-02-28 03:35:00,2548E-3,5C000000,-0724,0838,12004,028.2,045.4,0.454,739.3,01.18,0.508
2015-02-28 03:36:00,2207E-3,5C000000,-0724,0837,12073,028.2,045.4,0.454,739.3,01.18,0.508
2015-02-28 03:37:00,2564E-3,5C000000,-0724,0836,12146,028.2,045.4,0.454,739.3,01.18,0.508
2015-02-28 03:38:00,2368E-3,5C000000,-0724,0837,12175,028.2,045.4,0.454,739.4,01.18,0.508
2015-02-28 03:39:00,2368E-3,5C000000,-0724,0837,12096,028.2,045.5,0.454,739.3,01.18,0.508
2015-02-28 03:40:00,2404E-3,5C000000,-0724,0836,12016,028.2,045.4,0.454,739.2,01.18,0.508
2015-02-28 03:41:00,2437E-3,5C000000,-0724,0835,12143,028.2,045.4,0.454,739.2,01.18,0.508
2015-02-28 03:42:00,2349E-3,5C000000,-0724,0837,12102,028.2,045.5,0.454,739.3,01.18,0.508
2015-02-28 03:43:00,2329E-3,5C000000,-0724,0836,12139,028.2,045.5,0.454,739.1,01.18,0.508
2015-02-28 03:44:00,2379E-3,5C000000,-0724,0837,12067,028.2,045.4,0.454,739.3,01.18,0.508
2015-02-28 03:45:00,2338E-3,5C000000,-0724,0838,12147,028.2,045.4,0.454,739.0,01.18,0.508
2015-02-28 03:46:00,2253E-3,5C000000,-0724,0837,12095,028.2,045.5,0.454,739.1,01.18,0.508
2015-02-28 03:47:00,2445E-3,5C000000,-0724,0837,12151,028.2,045.5,0.454,739.2,01.18,0.508
2015-02-28 03:48:00,2530E-3,5C000000,-0724,0836,12006,028.2,045.4,0.454,739.3,01.18,0.508
2015-02-28 03:49:00,2297E-3,5C000000,-0724,0837,12328,028.2,045.4,0.454,739.3,01.18,0.508
2015-02-28 03:50:00,2294E-3,5C000000,-0724,0837,12102,028.2,045.4,0.454,739.3,01.18,0.508
2015-02-28 03:51:00,2390E-3,5C000000,-0724,0837,12195,028.2,045.4,0.454,739.3,01.18,0.508
2015-02-28 03:52:00,2344E-3,5C000000,-0724,0837,12173,028.2,045.4,0.454,739.2,01.18,0.508
2015-02-28 03:53:00,2247E-3,5C000000,-0724,0837,11964,028.2,045.4,0.454,739.1,01.18,0.508
2015-02-28 03:54:00,2432E-3,5C000000,-0724,0836,12233,028.2,045.4,0.454,739.2,01.18,0.508
2015-02-28 03:55:00,2275E-3,5C000000,-0724,0837,12134,028.2,045.4,0.454,739.3,01.18,0.508
2015-02-28 03:56:00,2363E-3,5C000000,-0724,0837,12053,028.3,045.5,0.454,739.2,01.18,0.508
2015-02-28 03:57:00,2399E-3,5C000000,-0724,0837,12218,028.2,045.5,0.454,739.2,01.18,0.508
2015-02-28 03:58:00,2307E-3,5C000000,-0724,0836,12067,028.2,045.4,0.454,739.1,01.18,0.508
2015-02-28 03:59:00,2284E-3,5C000000,-0724,0837,12062,028.2,045.4,0.454,739.1,01.18,0.508
2015-02-28 04:00:00,2312E-3,5C000000,-0724,0837,12105,028.2,045.5,0.454,739.1,01.18,0.508
2015-02-28 04:01:00,2447E-3,5C000000,-0724,0837,12198,028.2,045.5,0.454,739.2,01.18,0.508
2015-02-28 04:02:00,2247E-3,5C000000,-0724,0836,12191,028.2,045.4,0.454,739.1,01.18,0.508
2015-02-28 04:03:00,2348E-3,5C000000,-0724,0837,12054,028.3,045.5,0.454,738.8,01.18,0.508
2015-02-28 04:04:00,2331E-3,5C000000,-0724,0837,12175,028.2,045.5,0.454,739.2,01.18,0.508
2015-02-28 04:05:00,2378E-3,5C000000,-0724,0837,11980,028.3,045.4,0.454,739.2,01.18,0.508
2015-02-28 04:06:00,2317E-3,5C000000,-0724,0837,12058,028.2,045.5,0.454,739.0,01.18,0.508
2015-02-28 04:07:00,2425E-3,5C000000,-0724,0836,12050,028.2,045.4,0.454,739.0,01.18,0.508
2015-02-28 04:08:00,2452E-3,5C000000,-0724,0837,12172,028.3,045.5,0.454,739.0,01.18,0.508
2015-02-28 04:09:00,2325E-3,5C000000,-0724,0836,12268,028.3,045.4,0.454,739.0,01.18,0.508
2015-02-28 04:10:00,2370E-3,5C000000,-0724,0837,12064,028.3,045.5,0.454,739.0,01.18,0.508
2015-02-28 04:11:00,2295E-3,5C000000,-0724,0837,12217,028.3,045.4,0.454,739.0,01.18,0.508
2015-02-28 04:12:00,2364E-3,5C000000,-0724,0836,12142,028.3,045.4,0.454,739.1,01.18,0.508
2015-02-28 04:13:00,2561E-3,5C000000,-0724,0836,12153,028.2,045.5,0.454,739.0,01.18,0.508
2015-02-28 04:14:00,2376E-3,5C000000,-0724,0837,12199,028.3,045.4,0.454,739.0,01.18,0.508
2015-02-28 04:15:00,2337E-3,5C000000,-0724,0837,12108,028.2,045.4,0.454,739.0,01.18,0.508
2015-02-28 04:16:00,2476E-3,5C000000,-0724,0836,12059,028.3,045.5,0.454,739.0,01.18,0.508
2015-02-28 04:17:00,2314E-3,5C000000,-0724,0836,12168,028.3,045.5,0.454,739.0,01.18,0.508
2015-02-28 04:18:00,2180E-3,5C000000,-0724,0837,11793,028.3,045.5,0.454,739.0,01.18,0.508
2015-02-28 04:19:00,2266E-3,5C000000,-0724,0837,12144,028.3,045.4,0.454,739.0,01.18,0.508
2015-02-28 04:20:00,2375E-3,5C000000,-0724,0837,12254,028.3,045.5,0.454,739.0,01.18,0.508